Time,TemperatureF,DewpointF,PressureIn,WindDirection,WindDirectionDegrees,WindSpeedMPH,WindSpeedGustMPH,Humidity,HourlyPrecipIn,Conditions,Clouds,dailyrainin,SoftwareType,DateUTC
2013-01-18 00:01:00,18.1,12.2,30.32,NNE,14,0.0,0.0,77,0.00,,,0.00,WeatherCatV1.12B45,2013-01-18 08:01:00,
2013-01-18 00:07:00,18.1,12.2,30.32,NNE,14,0.0,0.0,77,0.00,,,0.00,WeatherCatV1.12B45,2013-01-18 08:07:00,
2013-01-18 00:12:00,18.1,12.2,30.32,NNE,14,0.0,0.0,77,0.00,,,0.00,WeatherCatV1.12B45,2013-01-18 08:12:00,
2013-01-18 00:17:00,18.1,12.2,30.32,NNE,14,0.0,0.0,77,0.00,,,0.00,WeatherCatV1.12B45,2013-01-18 08:17:00,
2013-01-18 00:22:00,17.8,11.8,30.32,NNE,14,0.0,0.0,77,0.00,,,0.00,WeatherCatV1.12B45,2013-01-18 08:22:00,
2013-01-18 00:27:00,17.8,11.8,30.32,NNE,14,0.0,0.0,77,0.00,,,0.00,WeatherCatV1.12B45,2013-01-18 08:27:00,
2013-01-18 00:32:00,18.0,12.0,30.32,NNE,14,0.0,0.0,77,0.00,,,0.00,WeatherCatV1.12B45,2013-01-18 08:32:00,
2013-01-18 00:37:00,18.0,12.0,30.32,NNE,14,0.0,0.0,77,0.00,,,0.00,WeatherCatV1.12B45,2013-01-18 08:37:00,
2013-01-18 00:42:00,18.1,12.2,30.32,NNE,14,0.0,0.0,77,0.00,,,0.00,WeatherCatV1.12B45,2013-01-18 08:42:00,
2013-01-18 00:47:00,18.0,12.0,30.32,NNE,14,0.0,0.0,77,0.00,,,0.00,WeatherCatV1.12B45,2013-01-18 08:47:00,
2013-01-18 00:52:00,17.8,11.8,30.32,NNE,14,0.0,0.0,77,0.00,,,0.00,WeatherCatV1.12B45,2013-01-18 08:52:00,
2013-01-18 00:57:00,18.0,12.0,30.32,NNE,14,0.0,0.0,77,0.00,,,0.00,WeatherCatV1.12B45,2013-01-18 08:57:00,
2013-01-18 01:02:00,18.1,12.2,30.32,NNE,14,0.0,0.0,77,0.00,,,0.00,WeatherCatV1.12B45,2013-01-18 09:02:00,
2013-01-18 01:07:00,18.0,12.0,30.32,NNE,14,0.0,0.0,77,0.00,,,0.00,WeatherCatV1.12B45,2013-01-18 09:07:00,
2013-01-18 01:12:00,18.0,12.0,30.32,NNE,14,0.0,0.0,77,0.00,,,0.00,WeatherCatV1.12B45,2013-01-18 09:12:00,
2013-01-18 01:17:00,18.0,12.0,30.32,NNE,14,0.0,0.0,77,0.00,,,0.00,WeatherCatV1.12B45,2013-01-18 09:17:00,
2013-01-18 01:22:00,18.1,12.2,30.32,NNE,14,0.0,0.0,77,0.00,,,0.00,WeatherCatV1.12B45,2013-01-18 09:22:00,
2013-01-18 01:27:00,18.0,12.0,30.32,NNE,14,0.0,0.0,77,0.00,,,0.00,WeatherCatV1.12B45,2013-01-18 09:27:00,
2013-01-18 01:32:00,18.1,11.9,30.32,NNE,14,0.0,0.0,76,0.00,,,0.00,WeatherCatV1.12B45,2013-01-18 09:32:00,
2013-01-18 01:37:00,18.0,11.7,30.32,NNE,14,0.0,0.0,76,0.00,,,0.00,WeatherCatV1.12B45,2013-01-18 09:37:00,
2013-01-18 01:42:00,18.0,12.0,30.32,NNE,14,0.0,0.0,77,0.00,,,0.00,WeatherCatV1.12B45,2013-01-18 09:42:00,
2013-01-18 01:47:00,18.1,11.9,30.32,NNE,14,0.0,0.0,76,0.00,,,0.00,WeatherCatV1.12B45,2013-01-18 09:47:00,
2013-01-18 01:52:00,18.1,11.9,30.32,NNE,14,0.0,0.0,76,0.00,,,0.00,WeatherCatV1.12B45,2013-01-18 09:52:00,
2013-01-18 01:57:00,18.1,11.9,30.32,NNE,14,0.0,0.0,76,0.00,,,0.00,WeatherCatV1.12B45,2013-01-18 09:57:00,
2013-01-18 02:02:00,18.1,11.9,30.32,NNE,14,0.0,0.0,76,0.00,,,0.00,WeatherCatV1.12B45,2013-01-18 10:02:00,
2013-01-18 02:07:00,18.3,12.3,30.32,NNE,14,0.0,0.0,77,0.00,,,0.00,WeatherCatV1.12B45,2013-01-18 10:07:00,
2013-01-18 02:12:00,18.3,12.3,30.32,NNE,14,0.0,0.0,77,0.00,,,0.00,WeatherCatV1.12B45,2013-01-18 10:12:00,
2013-01-18 02:17:00,18.5,12.5,30.32,NNE,14,0.0,0.0,77,0.00,,,0.00,WeatherCatV1.12B45,2013-01-18 10:17:00,
2013-01-18 02:22:00,18.5,12.5,30.32,NNE,14,0.0,0.0,77,0.00,,,0.00,WeatherCatV1.12B45,2013-01-18 10:22:00,
2013-01-18 02:27:00,18.7,12.7,30.32,NNE,14,0.0,0.0,77,0.00,,,0.00,WeatherCatV1.12B45,2013-01-18 10:27:00,
2013-01-18 02:32:00,18.9,12.9,30.32,NNE,14,0.0,0.0,77,0.00,,,0.00,WeatherCatV1.12B45,2013-01-18 10:32:00,
2013-01-18 02:37:00,19.0,13.0,30.32,NNE,14,0.0,0.0,77,0.00,,,0.00,WeatherCatV1.12B45,2013-01-18 10:37:00,
2013-01-18 02:42:00,19.0,13.0,30.32,NNE,14,0.0,0.0,77,0.00,,,0.00,WeatherCatV1.12B45,2013-01-18 10:42:00,
2013-01-18 02:47:00,19.2,13.2,30.32,NNE,14,0.0,0.0,77,0.00,,,0.00,WeatherCatV1.12B45,2013-01-18 10:47:00,
2013-01-18 02:52:00,19.4,13.7,30.32,NNE,14,0.0,0.0,78,0.00,,,0.00,WeatherCatV1.12B45,2013-01-18 10:52:00,
2013-01-18 02:57:00,19.6,13.9,30.32,NNE,14,0.0,0.0,78,0.00,,,0.00,WeatherCatV1.12B45,2013-01-18 10:57:00,
2013-01-18 03:02:00,19.6,13.9,30.32,NNE,14,0.0,2.7,78,0.00,,,0.00,WeatherCatV1.12B45,2013-01-18 11:02:00,
2013-01-18 03:07:00,19.6,13.9,30.32,NNE,14,0.0,0.0,78,0.00,,,0.00,WeatherCatV1.12B45,2013-01-18 11:07:00,
2013-01-18 03:12:00,19.6,13.9,30.32,NNE,14,2.7,2.7,78,0.00,,,0.00,WeatherCatV1.12B45,2013-01-18 11:12:00,
2013-01-18 03:17:00,19.6,13.9,30.32,NNE,14,0.0,0.0,78,0.00,,,0.00,WeatherCatV1.12B45,2013-01-18 11:17:00,
2013-01-18 03:22:00,19.6,13.9,30.32,NNE,14,0.0,0.0,78,0.00,,,0.00,WeatherCatV1.12B45,2013-01-18 11:22:00,
2013-01-18 03:27:00,19.6,13.9,30.32,NNE,14,0.0,0.0,78,0.00,,,0.00,WeatherCatV1.12B45,2013-01-18 11:27:00,
2013-01-18 03:32:00,19.4,13.7,30.32,NNE,14,0.0,0.0,78,0.00,,,0.00,WeatherCatV1.12B45,2013-01-18 11:32:00,
2013-01-18 03:37:00,19.4,13.7,30.29,NNE,14,0.0,0.0,78,0.00,,,0.00,WeatherCatV1.12B45,2013-01-18 11:37:00,
2013-01-18 03:42:00,19.4,13.7,30.29,NNE,14,0.0,0.0,78,0.00,,,0.00,WeatherCatV1.12B45,2013-01-18 11:42:00,
2013-01-18 03:47:00,19.4,13.7,30.29,NNE,14,0.0,0.0,78,0.00,,,0.00,WeatherCatV1.12B45,2013-01-18 11:47:00,
2013-01-18 03:52:00,19.4,13.7,30.29,NNE,14,0.0,0.0,78,0.00,,,0.00,WeatherCatV1.12B45,2013-01-18 11:52:00,
2013-01-18 03:57:00,19.2,13.5,30.29,NNE,14,0.0,0.0,78,0.00,,,0.00,WeatherCatV1.12B45,2013-01-18 11:57:00,
2013-01-18 04:02:00,19.2,13.5,30.29,NNE,14,0.0,0.0,78,0.00,,,0.00,WeatherCatV1.12B45,2013-01-18 12:02:00,
2013-01-18 04:07:00,19.2,13.2,30.29,NNE,14,0.0,0.0,77,0.00,,,0.00,WeatherCatV1.12B45,2013-01-18 12:07:00,
2013-01-18 04:12:00,19.2,13.5,30.29,NNE,14,0.0,0.0,78,0.00,,,0.00,WeatherCatV1.12B45,2013-01-18 12:12:00,
2013-01-18 04:17:00,19.0,13.3,30.29,NNE,14,0.0,0.0,78,0.00,,,0.00,WeatherCatV1.12B45,2013-01-18 12:17:00,
2013-01-18 04:22:00,19.0,13.3,30.29,NNE,14,0.0,0.0,78,0.00,,,0.00,WeatherCatV1.12B45,2013-01-18 12:22:00,
2013-01-18 04:27:00,19.2,13.5,30.29,NNE,14,0.0,0.0,78,0.00,,,0.00,WeatherCatV1.12B45,2013-01-18 12:27:00,
2013-01-18 04:32:00,19.2,13.5,30.29,NNE,14,0.0,0.0,78,0.00,,,0.00,WeatherCatV1.12B45,2013-01-18 12:32:00,
2013-01-18 04:37:00,19.2,13.5,30.29,NNE,14,0.0,0.0,78,0.00,,,0.00,WeatherCatV1.12B45,2013-01-18 12:37:00,
2013-01-18 04:42:00,19.2,13.5,30.29,NNE,14,0.0,0.0,78,0.00,,,0.00,WeatherCatV1.12B45,2013-01-18 12:42:00,
2013-01-18 04:47:00,19.2,13.5,30.29,NNE,14,0.0,0.0,78,0.00,,,0.00,WeatherCatV1.12B45,2013-01-18 12:47:00,
2013-01-18 04:52:00,19.0,13.0,30.29,NNE,14,0.0,0.0,77,0.00,,,0.00,WeatherCatV1.12B45,2013-01-18 12:52:00,
2013-01-18 04:57:00,19.0,13.0,30.29,NNE,14,0.0,0.0,77,0.00,,,0.00,WeatherCatV1.12B45,2013-01-18 12:57:00,
2013-01-18 05:02:00,19.0,13.0,30.29,NNE,14,0.0,0.0,77,0.00,,,0.00,WeatherCatV1.12B45,2013-01-18 13:02:00,
2013-01-18 05:07:00,19.0,13.0,30.26,NNE,14,0.0,0.0,77,0.00,,,0.00,WeatherCatV1.12B45,2013-01-18 13:07:00,
2013-01-18 05:12:00,19.0,13.0,30.26,NNE,14,0.0,0.0,77,0.00,,,0.00,WeatherCatV1.12B45,2013-01-18 13:12:00,
2013-01-18 05:17:00,19.0,13.0,30.26,NNE,14,0.0,0.0,77,0.00,,,0.00,WeatherCatV1.12B45,2013-01-18 13:17:00,
2013-01-18 05:22:00,19.0,13.0,30.26,NNE,14,0.0,0.0,77,0.00,,,0.00,WeatherCatV1.12B45,2013-01-18 13:22:00,
2013-01-18 05:27:00,18.9,12.9,30.26,NNE,14,0.0,0.0,77,0.00,,,0.00,WeatherCatV1.12B45,2013-01-18 13:27:00,
2013-01-18 05:32:00,18.9,12.9,30.26,NNE,14,0.0,0.0,77,0.00,,,0.00,WeatherCatV1.12B45,2013-01-18 13:32:00,
2013-01-18 05:37:00,18.7,12.7,30.26,NNE,14,0.0,0.0,77,0.00,,,0.00,WeatherCatV1.12B45,2013-01-18 13:37:00,
2013-01-18 05:42:00,18.7,12.7,30.26,NNE,14,0.0,0.0,77,0.00,,,0.00,WeatherCatV1.12B45,2013-01-18 13:42:00,
2013-01-18 05:47:00,18.7,12.7,30.26,NNE,14,0.0,0.0,77,0.00,,,0.00,WeatherCatV1.12B45,2013-01-18 13:47:00,
2013-01-18 05:52:00,18.7,12.7,30.26,NNE,14,0.0,0.0,77,0.00,,,0.00,WeatherCatV1.12B45,2013-01-18 13:52:00,
2013-01-18 05:57:00,18.7,12.7,30.26,NNE,14,0.0,0.0,77,0.00,,,0.00,WeatherCatV1.12B45,2013-01-18 13:57:00,
2013-01-18 06:02:00,18.9,12.9,30.26,NNE,14,0.0,0.0,77,0.00,,,0.00,WeatherCatV1.12B45,2013-01-18 14:02:00,
2013-01-18 06:07:00,18.7,12.7,30.26,NNE,14,0.0,0.0,77,0.00,,,0.00,WeatherCatV1.12B45,2013-01-18 14:07:00,
2013-01-18 06:12:00,18.7,12.7,30.26,NNE,14,0.0,0.0,77,0.00,,,0.00,WeatherCatV1.12B45,2013-01-18 14:12:00,
2013-01-18 06:17:00,18.9,12.9,30.26,NNE,14,0.0,0.0,77,0.00,,,0.00,WeatherCatV1.12B45,2013-01-18 14:17:00,
2013-01-18 06:22:00,18.9,12.9,30.26,NNE,14,0.0,0.0,77,0.00,,,0.00,WeatherCatV1.12B45,2013-01-18 14:22:00,
2013-01-18 06:27:00,19.0,13.0,30.26,NNE,14,0.0,0.0,77,0.00,,,0.00,WeatherCatV1.12B45,2013-01-18 14:27:00,
2013-01-18 06:32:00,18.9,12.9,30.26,NNE,14,0.0,0.0,77,0.00,,,0.00,WeatherCatV1.12B45,2013-01-18 14:32:00,
2013-01-18 06:37:00,18.7,12.7,30.26,NNE,14,0.0,0.0,77,0.00,,,0.00,WeatherCatV1.12B45,2013-01-18 14:37:00,
2013-01-18 06:42:00,18.7,12.7,30.26,NNE,14,0.0,0.0,77,0.00,,,0.00,WeatherCatV1.12B45,2013-01-18 14:42:00,
2013-01-18 06:47:00,18.7,12.7,30.26,NNE,14,0.0,0.0,77,0.00,,,0.00,WeatherCatV1.12B45,2013-01-18 14:47:00,
2013-01-18 06:52:00,18.7,12.7,30.26,NNE,14,0.0,0.0,77,0.00,,,0.00,WeatherCatV1.12B45,2013-01-18 14:52:00,
2013-01-18 06:57:00,18.7,12.7,30.26,NNE,14,0.0,0.0,77,0.00,,,0.00,WeatherCatV1.12B45,2013-01-18 14:57:00,
2013-01-18 07:02:00,18.7,12.7,30.26,NNE,14,0.0,0.0,77,0.00,,,0.00,WeatherCatV1.12B45,2013-01-18 15:02:00,
2013-01-18 07:07:00,18.9,12.9,30.26,NNE,14,0.0,0.0,77,0.00,,,0.00,WeatherCatV1.12B45,2013-01-18 15:07:00,
2013-01-18 07:12:00,18.9,12.9,30.26,NNE,14,0.0,0.0,77,0.00,,,0.00,WeatherCatV1.12B45,2013-01-18 15:12:00,
2013-01-18 07:17:00,18.9,12.9,30.26,NNE,14,0.0,0.0,77,0.00,,,0.00,WeatherCatV1.12B45,2013-01-18 15:17:00,
2013-01-18 07:22:00,19.0,13.0,30.26,NNE,14,0.0,0.0,77,0.00,,,0.00,WeatherCatV1.12B45,2013-01-18 15:22:00,
2013-01-18 07:27:00,19.0,13.0,30.26,NNE,14,0.0,0.0,77,0.00,,,0.00,WeatherCatV1.12B45,2013-01-18 15:27:00,
2013-01-18 07:32:00,18.7,12.7,30.26,NNE,14,0.0,0.0,77,0.00,,,0.00,WeatherCatV1.12B45,2013-01-18 15:32:00,
2013-01-18 07:37:00,18.7,12.7,30.26,NNE,14,0.0,0.0,77,0.00,,,0.00,WeatherCatV1.12B45,2013-01-18 15:37:00,
2013-01-18 07:42:00,18.7,12.7,30.26,NNE,14,0.0,0.0,77,0.00,,,0.00,WeatherCatV1.12B45,2013-01-18 15:42:00,
2013-01-18 07:47:00,18.9,12.9,30.26,NNE,14,0.0,0.0,77,0.00,,,0.00,WeatherCatV1.12B45,2013-01-18 15:47:00,
2013-01-18 07:52:00,19.0,13.0,30.26,NNE,14,0.0,0.0,77,0.00,,,0.00,WeatherCatV1.12B45,2013-01-18 15:52:00,
2013-01-18 07:57:00,19.2,13.2,30.26,NNE,14,0.0,0.0,77,0.00,,,0.00,WeatherCatV1.12B45,2013-01-18 15:57:00,
2013-01-18 08:02:00,19.2,13.2,30.26,NNE,14,0.0,0.0,77,0.00,,,0.00,WeatherCatV1.12B45,2013-01-18 16:02:00,
2013-01-18 08:07:00,19.2,13.2,30.26,NNE,14,0.0,0.0,77,0.00,,,0.00,WeatherCatV1.12B45,2013-01-18 16:07:00,
2013-01-18 08:12:00,19.4,13.4,30.26,NNE,14,0.0,0.0,77,0.00,,,0.00,WeatherCatV1.12B45,2013-01-18 16:12:00,
2013-01-18 08:17:00,19.4,13.4,30.26,NNE,14,0.0,0.0,77,0.00,,,0.00,WeatherCatV1.12B45,2013-01-18 16:17:00,
2013-01-18 08:22:00,19.6,13.6,30.26,NNE,14,0.0,0.0,77,0.00,,,0.00,WeatherCatV1.12B45,2013-01-18 16:22:00,
2013-01-18 08:27:00,19.6,13.6,30.26,NNE,14,0.0,0.0,77,0.00,,,0.00,WeatherCatV1.12B45,2013-01-18 16:27:00,
2013-01-18 08:32:00,19.6,13.6,30.26,NNE,14,0.0,0.0,77,0.00,,,0.00,WeatherCatV1.12B45,2013-01-18 16:32:00,
2013-01-18 08:37:00,19.8,13.7,30.26,NNE,14,0.0,0.0,77,0.00,,,0.00,WeatherCatV1.12B45,2013-01-18 16:37:00,
2013-01-18 08:42:00,19.8,13.7,30.26,NNE,14,0.0,0.0,77,0.00,,,0.00,WeatherCatV1.12B45,2013-01-18 16:42:00,
2013-01-18 08:48:00,19.9,13.9,30.26,NNE,14,0.0,0.0,77,0.00,,,0.00,WeatherCatV1.12B45,2013-01-18 16:48:00,
2013-01-18 08:53:00,19.9,13.9,30.26,NNE,14,0.0,0.0,77,0.00,,,0.00,WeatherCatV1.12B45,2013-01-18 16:53:00,
2013-01-18 08:58:00,19.9,13.9,30.26,NNE,14,0.0,0.0,77,0.00,,,0.00,WeatherCatV1.12B45,2013-01-18 16:58:00,
2013-01-18 09:03:00,20.1,13.8,30.26,NNE,14,0.0,0.0,76,0.00,,,0.00,WeatherCatV1.12B45,2013-01-18 17:03:00,
2013-01-18 09:08:00,20.1,13.8,30.26,NNE,14,0.0,0.0,76,0.00,,,0.00,WeatherCatV1.12B45,2013-01-18 17:08:00,
2013-01-18 09:13:00,20.1,13.8,30.26,NNE,14,0.0,0.0,76,0.00,,,0.00,WeatherCatV1.12B45,2013-01-18 17:13:00,
2013-01-18 09:18:00,20.1,13.8,30.26,NNE,14,0.0,0.0,76,0.00,,,0.00,WeatherCatV1.12B45,2013-01-18 17:18:00,
2013-01-18 09:23:00,20.3,14.0,30.26,NNE,14,0.0,0.0,76,0.00,,,0.00,WeatherCatV1.12B45,2013-01-18 17:23:00,
2013-01-18 09:28:00,20.3,14.0,30.26,NNE,14,0.0,0.0,76,0.00,,,0.00,WeatherCatV1.12B45,2013-01-18 17:28:00,
2013-01-18 09:33:00,20.5,13.8,30.26,NNE,14,0.0,0.0,75,0.00,,,0.00,WeatherCatV1.12B45,2013-01-18 17:33:00,
2013-01-18 09:38:00,20.7,14.0,30.26,NNE,14,0.0,0.0,75,0.00,,,0.00,WeatherCatV1.12B45,2013-01-18 17:38:00,
2013-01-18 09:43:00,20.7,14.0,30.26,NNE,14,0.0,0.0,75,0.00,,,0.00,WeatherCatV1.12B45,2013-01-18 17:43:00,
2013-01-18 09:48:00,20.8,14.2,30.26,NNE,14,0.0,0.0,75,0.00,,,0.00,WeatherCatV1.12B45,2013-01-18 17:48:00,
2013-01-18 09:53:00,20.8,14.2,30.26,NNE,14,0.0,0.0,75,0.00,,,0.00,WeatherCatV1.12B45,2013-01-18 17:53:00,
2013-01-18 09:58:00,21.0,14.1,30.26,NNE,14,0.0,0.0,74,0.00,,,0.00,WeatherCatV1.12B45,2013-01-18 17:58:00,
2013-01-18 10:03:00,21.2,14.2,30.26,NNE,14,0.0,0.0,74,0.00,,,0.00,WeatherCatV1.12B45,2013-01-18 18:03:00,
2013-01-18 10:08:00,21.2,14.2,30.26,NNE,14,0.0,0.0,74,0.00,,,0.00,WeatherCatV1.12B45,2013-01-18 18:08:00,
2013-01-18 10:13:00,21.2,13.9,30.26,NNE,14,0.0,0.0,73,0.00,,,0.00,WeatherCatV1.12B45,2013-01-18 18:13:00,
2013-01-18 10:18:00,21.4,14.1,30.26,NNE,14,0.0,0.0,73,0.00,,,0.00,WeatherCatV1.12B45,2013-01-18 18:18:00,
2013-01-18 10:23:00,21.6,14.3,30.26,NNE,14,0.0,0.0,73,0.00,,,0.00,WeatherCatV1.12B45,2013-01-18 18:23:00,
2013-01-18 10:28:00,21.7,14.4,30.26,NNE,14,0.0,0.0,73,0.00,,,0.00,WeatherCatV1.12B45,2013-01-18 18:28:00,
2013-01-18 10:33:00,21.9,14.9,30.26,NNE,14,0.0,0.0,74,0.00,,,0.00,WeatherCatV1.12B45,2013-01-18 18:33:00,
2013-01-18 10:38:00,21.9,14.9,30.26,NNE,14,0.0,0.0,74,0.00,,,0.00,WeatherCatV1.12B45,2013-01-18 18:38:00,
2013-01-18 10:43:00,22.1,15.1,30.26,NNE,14,0.0,0.0,74,0.00,,,0.00,WeatherCatV1.12B45,2013-01-18 18:43:00,
2013-01-18 10:48:00,22.3,15.3,30.26,NNE,14,0.0,0.0,74,0.00,,,0.00,WeatherCatV1.12B45,2013-01-18 18:48:00,
2013-01-18 10:53:00,22.3,15.0,30.26,NNE,14,0.0,0.0,73,0.00,,,0.00,WeatherCatV1.12B45,2013-01-18 18:53:00,
2013-01-18 10:58:00,22.5,14.8,30.26,NNE,14,0.0,0.0,72,0.00,,,0.00,WeatherCatV1.12B45,2013-01-18 18:58:00,
2013-01-18 11:03:00,22.6,15.3,30.26,NNE,14,0.0,0.0,73,0.00,,,0.00,WeatherCatV1.12B45,2013-01-18 19:03:00,
2013-01-18 11:08:00,22.6,15.0,30.26,NNE,14,0.0,0.0,72,0.00,,,0.00,WeatherCatV1.12B45,2013-01-18 19:08:00,
2013-01-18 11:13:00,22.8,15.2,30.26,NNE,14,0.0,0.0,72,0.00,,,0.00,WeatherCatV1.12B45,2013-01-18 19:13:00,
2013-01-18 11:18:00,22.8,15.2,30.26,NNE,14,0.0,0.0,72,0.00,,,0.00,WeatherCatV1.12B45,2013-01-18 19:18:00,
2013-01-18 11:23:00,23.0,15.3,30.26,NNE,14,0.0,0.0,72,0.00,,,0.00,WeatherCatV1.12B45,2013-01-18 19:23:00,
2013-01-18 11:28:00,23.0,15.3,30.26,NNE,14,0.0,0.0,72,0.00,,,0.00,WeatherCatV1.12B45,2013-01-18 19:28:00,
2013-01-18 11:33:00,23.0,15.0,30.26,NNE,14,0.0,0.0,71,0.00,,,0.00,WeatherCatV1.12B45,2013-01-18 19:33:00,
2013-01-18 11:38:00,23.2,15.2,30.26,NNE,14,0.0,0.0,71,0.00,,,0.00,WeatherCatV1.12B45,2013-01-18 19:38:00,
2013-01-18 11:43:00,23.4,15.4,30.26,ESE,103,2.7,3.6,71,0.00,,,0.00,WeatherCatV1.12B45,2013-01-18 19:43:00,
2013-01-18 11:48:00,23.5,15.5,30.26,ESE,103,0.0,0.0,71,0.00,,,0.00,WeatherCatV1.12B45,2013-01-18 19:48:00,
2013-01-18 11:53:00,23.9,15.9,30.26,ESE,103,0.0,0.0,71,0.00,,,0.00,WeatherCatV1.12B45,2013-01-18 19:53:00,
2013-01-18 11:58:00,24.1,16.1,30.26,ESE,103,0.0,0.0,71,0.00,,,0.00,WeatherCatV1.12B45,2013-01-18 19:58:00,
2013-01-18 12:03:00,23.9,15.6,30.26,East,88,0.0,0.0,70,0.00,,,0.00,WeatherCatV1.12B45,2013-01-18 20:03:00,
2013-01-18 12:08:00,23.7,15.1,30.26,East,87,0.0,0.0,69,0.00,,,0.00,WeatherCatV1.12B45,2013-01-18 20:08:00,
2013-01-18 12:13:00,23.5,14.9,30.26,East,88,0.0,0.0,69,0.00,,,0.00,WeatherCatV1.12B45,2013-01-18 20:13:00,
2013-01-18 12:18:00,23.9,15.6,30.26,East,88,0.0,0.0,70,0.00,,,0.00,WeatherCatV1.12B45,2013-01-18 20:18:00,
2013-01-18 12:23:00,24.1,16.1,30.23,ENE,62,0.0,0.0,71,0.00,,,0.00,WeatherCatV1.12B45,2013-01-18 20:23:00,
2013-01-18 12:28:00,24.3,16.6,30.23,ENE,62,0.0,0.0,72,0.00,,,0.00,WeatherCatV1.12B45,2013-01-18 20:28:00,
2013-01-18 12:33:00,24.3,16.6,30.23,ENE,62,0.0,0.0,72,0.00,,,0.00,WeatherCatV1.12B45,2013-01-18 20:33:00,
2013-01-18 12:38:00,24.3,16.6,30.23,ENE,62,0.0,0.0,72,0.00,,,0.00,WeatherCatV1.12B45,2013-01-18 20:38:00,
2013-01-18 12:43:00,24.1,16.4,30.23,ENE,62,0.0,0.0,72,0.00,,,0.00,WeatherCatV1.12B45,2013-01-18 20:43:00,
2013-01-18 12:48:00,23.9,16.2,30.23,ENE,62,0.0,0.0,72,0.00,,,0.00,WeatherCatV1.12B45,2013-01-18 20:48:00,
2013-01-18 12:53:00,24.1,16.4,30.23,ENE,62,0.0,0.0,72,0.00,,,0.00,WeatherCatV1.12B45,2013-01-18 20:53:00,
2013-01-18 12:58:00,24.4,17.0,30.23,ENE,62,0.0,0.0,73,0.00,,,0.00,WeatherCatV1.12B45,2013-01-18 20:58:00,
2013-01-18 13:03:00,24.6,17.2,30.23,ENE,62,0.0,0.0,73,0.00,,,0.00,WeatherCatV1.12B45,2013-01-18 21:03:00,
2013-01-18 13:08:00,25.3,17.6,30.23,ENE,62,0.0,0.0,72,0.00,,,0.00,WeatherCatV1.12B45,2013-01-18 21:08:00,
2013-01-18 13:13:00,25.7,18.3,30.23,ENE,62,0.0,0.0,73,0.00,,,0.00,WeatherCatV1.12B45,2013-01-18 21:13:00,
2013-01-18 13:18:00,25.5,16.8,30.23,ENE,62,0.0,0.0,69,0.00,,,0.00,WeatherCatV1.12B45,2013-01-18 21:18:00,
2013-01-18 13:23:00,25.7,17.3,30.20,ENE,62,0.0,0.0,70,0.00,,,0.00,WeatherCatV1.12B45,2013-01-18 21:23:00,
2013-01-18 13:28:00,26.1,18.0,30.20,ENE,62,0.0,0.0,71,0.00,,,0.00,WeatherCatV1.12B45,2013-01-18 21:28:00,
2013-01-18 13:33:00,25.7,17.0,30.20,ENE,62,0.0,0.0,69,0.00,,,0.00,WeatherCatV1.12B45,2013-01-18 21:33:00,
2013-01-18 13:38:00,25.3,16.6,30.20,ENE,62,0.0,0.0,69,0.00,,,0.00,WeatherCatV1.12B45,2013-01-18 21:38:00,
2013-01-18 13:43:00,24.8,16.8,30.20,ENE,62,2.7,3.1,71,0.00,,,0.00,WeatherCatV1.12B45,2013-01-18 21:43:00,
2013-01-18 13:48:00,24.8,17.1,30.20,ENE,62,0.0,0.0,72,0.00,,,0.00,WeatherCatV1.12B45,2013-01-18 21:48:00,
2013-01-18 13:53:00,25.2,17.1,30.23,ENE,62,0.0,2.7,71,0.00,,,0.00,WeatherCatV1.12B45,2013-01-18 21:53:00,
2013-01-18 13:58:00,25.2,17.1,30.23,ENE,62,0.0,2.2,71,0.00,,,0.00,WeatherCatV1.12B45,2013-01-18 21:58:00,
2013-01-18 14:03:00,24.8,17.1,30.23,ENE,62,0.0,0.0,72,0.00,,,0.00,WeatherCatV1.12B45,2013-01-18 22:03:00,
2013-01-18 14:08:00,24.6,16.9,30.20,ENE,62,0.0,0.0,72,0.00,,,0.00,WeatherCatV1.12B45,2013-01-18 22:08:00,
2013-01-18 14:13:00,24.6,16.9,30.20,ENE,62,0.0,0.0,72,0.00,,,0.00,WeatherCatV1.12B45,2013-01-18 22:13:00,
2013-01-18 14:18:00,24.1,16.4,30.20,ENE,62,0.0,0.0,72,0.00,,,0.00,WeatherCatV1.12B45,2013-01-18 22:18:00,
2013-01-18 14:23:00,23.5,16.2,30.23,ENE,62,0.0,0.0,73,0.00,,,0.00,WeatherCatV1.12B45,2013-01-18 22:23:00,
2013-01-18 14:28:00,23.2,15.8,30.23,ENE,62,0.0,0.0,73,0.00,,,0.00,WeatherCatV1.12B45,2013-01-18 22:28:00,
2013-01-18 14:33:00,23.0,16.0,30.23,ENE,62,0.0,0.0,74,0.00,,,0.00,WeatherCatV1.12B45,2013-01-18 22:33:00,
2013-01-18 14:38:00,22.8,15.8,30.23,ENE,62,0.0,0.0,74,0.00,,,0.00,WeatherCatV1.12B45,2013-01-18 22:38:00,
2013-01-18 14:43:00,22.6,15.6,30.23,ENE,62,0.0,0.0,74,0.00,,,0.00,WeatherCatV1.12B45,2013-01-18 22:43:00,
2013-01-18 14:48:00,22.3,15.6,30.23,ENE,62,0.0,0.0,75,0.00,,,0.00,WeatherCatV1.12B45,2013-01-18 22:48:00,
2013-01-18 14:53:00,22.1,15.4,30.23,ENE,62,0.0,0.0,75,0.00,,,0.00,WeatherCatV1.12B45,2013-01-18 22:53:00,
2013-01-18 14:58:00,21.7,15.1,30.23,ENE,62,0.0,0.0,75,0.00,,,0.00,WeatherCatV1.12B45,2013-01-18 22:58:00,
2013-01-18 15:03:00,21.6,14.9,30.23,ENE,62,0.0,0.0,75,0.00,,,0.00,WeatherCatV1.12B45,2013-01-18 23:03:00,
2013-01-18 15:08:00,21.4,14.7,30.23,ENE,62,0.0,0.0,75,0.00,,,0.00,WeatherCatV1.12B45,2013-01-18 23:08:00,
2013-01-18 15:13:00,21.2,14.8,30.23,ENE,62,0.0,0.0,76,0.00,,,0.00,WeatherCatV1.12B45,2013-01-18 23:13:00,
2013-01-18 15:18:00,21.2,14.8,30.23,ENE,62,0.0,0.0,76,0.00,,,0.00,WeatherCatV1.12B45,2013-01-18 23:18:00,
2013-01-18 15:23:00,21.2,15.1,30.23,ENE,62,0.0,0.0,77,0.00,,,0.00,WeatherCatV1.12B45,2013-01-18 23:23:00,
2013-01-18 15:28:00,21.0,15.0,30.23,ENE,62,0.0,0.0,77,0.00,,,0.00,WeatherCatV1.12B45,2013-01-18 23:28:00,
2013-01-18 15:33:00,21.2,15.1,30.23,ENE,62,0.0,0.0,77,0.00,,,0.00,WeatherCatV1.12B45,2013-01-18 23:33:00,
2013-01-18 15:38:00,21.2,15.1,30.23,ENE,62,0.0,0.0,77,0.00,,,0.00,WeatherCatV1.12B45,2013-01-18 23:38:00,
2013-01-18 15:43:00,20.8,14.8,30.23,ENE,62,0.0,0.0,77,0.00,,,0.00,WeatherCatV1.12B45,2013-01-18 23:43:00,
2013-01-18 15:48:00,20.7,14.6,30.23,ENE,62,0.0,0.0,77,0.00,,,0.00,WeatherCatV1.12B45,2013-01-18 23:48:00,
2013-01-18 15:53:00,20.5,14.4,30.23,ENE,62,0.0,0.0,77,0.00,,,0.00,WeatherCatV1.12B45,2013-01-18 23:53:00,
2013-01-18 15:59:00,20.7,14.6,30.23,ENE,62,0.0,0.0,77,0.00,,,0.00,WeatherCatV1.12B45,2013-01-18 23:59:00,
2013-01-18 16:04:00,20.5,14.4,30.23,ENE,62,0.0,0.0,77,0.00,,,0.00,WeatherCatV1.12B45,2013-01-19 00:04:00,
2013-01-18 16:09:00,20.5,14.4,30.23,ENE,62,0.0,0.0,77,0.00,,,0.00,WeatherCatV1.12B45,2013-01-19 00:09:00,
2013-01-18 16:14:00,20.3,14.3,30.23,ENE,62,0.0,0.0,77,0.00,,,0.00,WeatherCatV1.12B45,2013-01-19 00:14:00,
2013-01-18 16:19:00,20.3,14.3,30.23,ENE,62,0.0,0.0,77,0.00,,,0.00,WeatherCatV1.12B45,2013-01-19 00:19:00,
2013-01-18 16:24:00,20.3,14.3,30.23,ENE,62,0.0,0.0,77,0.00,,,0.00,WeatherCatV1.12B45,2013-01-19 00:24:00,
2013-01-18 16:29:00,20.3,14.6,30.23,ENE,62,0.0,0.0,78,0.00,,,0.00,WeatherCatV1.12B45,2013-01-19 00:29:00,
2013-01-18 16:34:00,20.5,14.7,30.23,ENE,62,0.0,0.0,78,0.00,,,0.00,WeatherCatV1.12B45,2013-01-19 00:34:00,
2013-01-18 16:39:00,20.5,14.7,30.26,ENE,62,0.0,0.0,78,0.00,,,0.00,WeatherCatV1.12B45,2013-01-19 00:39:00,
2013-01-18 16:44:00,20.5,15.0,30.26,ENE,62,0.0,0.0,79,0.00,,,0.00,WeatherCatV1.12B45,2013-01-19 00:44:00,
2013-01-18 16:49:00,20.7,15.2,30.26,ENE,62,0.0,0.0,79,0.00,,,0.00,WeatherCatV1.12B45,2013-01-19 00:49:00,
2013-01-18 16:54:00,20.5,15.0,30.26,ENE,62,0.0,0.0,79,0.00,,,0.00,WeatherCatV1.12B45,2013-01-19 00:54:00,
2013-01-18 16:59:00,20.5,15.3,30.26,ENE,62,0.0,0.0,80,0.00,,,0.00,WeatherCatV1.12B45,2013-01-19 00:59:00,
2013-01-18 17:04:00,20.5,15.3,30.26,ENE,62,0.0,0.0,80,0.00,,,0.00,WeatherCatV1.12B45,2013-01-19 01:04:00,
2013-01-18 17:09:00,20.5,15.3,30.26,ENE,62,0.0,0.0,80,0.00,,,0.00,WeatherCatV1.12B45,2013-01-19 01:09:00,
2013-01-18 17:14:00,20.3,14.8,30.26,ENE,62,0.0,0.0,79,0.00,,,0.00,WeatherCatV1.12B45,2013-01-19 01:14:00,
2013-01-18 17:19:00,20.3,14.8,30.26,ENE,62,0.0,0.0,79,0.00,,,0.00,WeatherCatV1.12B45,2013-01-19 01:19:00,
2013-01-18 17:24:00,20.1,14.7,30.26,ENE,62,0.0,0.0,79,0.00,,,0.00,WeatherCatV1.12B45,2013-01-19 01:24:00,
2013-01-18 17:29:00,20.1,14.7,30.26,ENE,62,0.0,0.0,79,0.00,,,0.00,WeatherCatV1.12B45,2013-01-19 01:29:00,
2013-01-18 17:34:00,20.1,14.7,30.26,ENE,62,0.0,0.0,79,0.00,,,0.00,WeatherCatV1.12B45,2013-01-19 01:34:00,
2013-01-18 17:39:00,19.8,14.3,30.26,ENE,62,0.0,0.0,79,0.00,,,0.00,WeatherCatV1.12B45,2013-01-19 01:39:00,
2013-01-18 17:44:00,19.8,14.3,30.26,ENE,62,0.0,0.0,79,0.00,,,0.00,WeatherCatV1.12B45,2013-01-19 01:44:00,
2013-01-18 17:49:00,19.6,13.9,30.26,ENE,62,0.0,0.0,78,0.00,,,0.00,WeatherCatV1.12B45,2013-01-19 01:49:00,
2013-01-18 17:54:00,19.6,13.9,30.26,ENE,62,0.0,0.0,78,0.00,,,0.00,WeatherCatV1.12B45,2013-01-19 01:54:00,
2013-01-18 17:59:00,19.6,14.1,30.26,ENE,62,0.0,0.0,79,0.00,,,0.00,WeatherCatV1.12B45,2013-01-19 01:59:00,
2013-01-18 18:04:00,20.1,15.0,30.26,ENE,62,0.0,0.0,80,0.00,,,0.00,WeatherCatV1.12B45,2013-01-19 02:04:00,
2013-01-18 18:09:00,19.9,14.5,30.26,ENE,62,0.0,0.0,79,0.00,,,0.00,WeatherCatV1.12B45,2013-01-19 02:09:00,
2013-01-18 18:14:00,19.8,14.3,30.26,ENE,62,0.0,0.0,79,0.00,,,0.00,WeatherCatV1.12B45,2013-01-19 02:14:00,
2013-01-18 18:19:00,19.2,13.8,30.26,ENE,62,0.0,0.0,79,0.00,,,0.00,WeatherCatV1.12B45,2013-01-19 02:19:00,
2013-01-18 18:24:00,19.0,13.3,30.26,ENE,62,0.0,0.0,78,0.00,,,0.00,WeatherCatV1.12B45,2013-01-19 02:24:00,
2013-01-18 18:29:00,19.4,14.0,30.26,ENE,62,0.0,0.0,79,0.00,,,0.00,WeatherCatV1.12B45,2013-01-19 02:29:00,
2013-01-18 18:34:00,19.4,14.0,30.26,ENE,62,0.0,0.0,79,0.00,,,0.00,WeatherCatV1.12B45,2013-01-19 02:34:00,
2013-01-18 18:39:00,19.2,13.8,30.26,ENE,62,0.0,0.0,79,0.00,,,0.00,WeatherCatV1.12B45,2013-01-19 02:39:00,
2013-01-18 18:44:00,19.4,14.3,30.26,ENE,62,0.0,0.0,80,0.00,,,0.00,WeatherCatV1.12B45,2013-01-19 02:44:00,
2013-01-18 18:49:00,19.2,13.8,30.26,ENE,62,0.0,0.0,79,0.00,,,0.00,WeatherCatV1.12B45,2013-01-19 02:49:00,
2013-01-18 18:54:00,19.4,14.0,30.26,ENE,62,0.0,0.0,79,0.00,,,0.00,WeatherCatV1.12B45,2013-01-19 02:54:00,
2013-01-18 18:59:00,19.2,13.8,30.26,ENE,62,0.0,0.0,79,0.00,,,0.00,WeatherCatV1.12B45,2013-01-19 02:59:00,
2013-01-18 19:04:00,19.4,14.0,30.26,ENE,62,0.0,0.0,79,0.00,,,0.00,WeatherCatV1.12B45,2013-01-19 03:04:00,
2013-01-18 19:09:00,19.4,14.0,30.26,ENE,62,0.0,0.0,79,0.00,,,0.00,WeatherCatV1.12B45,2013-01-19 03:09:00,
2013-01-18 19:14:00,19.2,13.8,30.26,ENE,62,0.0,0.0,79,0.00,,,0.00,WeatherCatV1.12B45,2013-01-19 03:14:00,
2013-01-18 19:19:00,18.9,13.2,30.26,ENE,62,0.0,0.0,78,0.00,,,0.00,WeatherCatV1.12B45,2013-01-19 03:19:00,
2013-01-18 19:24:00,18.5,12.8,30.26,ENE,62,0.0,0.0,78,0.00,,,0.00,WeatherCatV1.12B45,2013-01-19 03:24:00,
2013-01-18 19:29:00,18.5,12.8,30.26,ENE,62,0.0,0.0,78,0.00,,,0.00,WeatherCatV1.12B45,2013-01-19 03:29:00,
2013-01-18 19:34:00,18.7,13.0,30.26,ENE,62,0.0,0.0,78,0.00,,,0.00,WeatherCatV1.12B45,2013-01-19 03:34:00,
2013-01-18 19:39:00,18.7,13.0,30.26,ENE,62,0.0,0.0,78,0.00,,,0.00,WeatherCatV1.12B45,2013-01-19 03:39:00,
2013-01-18 19:44:00,18.5,12.8,30.26,ENE,62,0.0,0.0,78,0.00,,,0.00,WeatherCatV1.12B45,2013-01-19 03:44:00,
2013-01-18 19:49:00,18.5,12.8,30.26,ENE,62,0.0,0.0,78,0.00,,,0.00,WeatherCatV1.12B45,2013-01-19 03:49:00,
2013-01-18 19:54:00,18.5,12.8,30.26,ENE,62,0.0,0.0,78,0.00,,,0.00,WeatherCatV1.12B45,2013-01-19 03:54:00,
2013-01-18 19:59:00,18.3,12.3,30.26,ENE,62,0.0,0.0,77,0.00,,,0.00,WeatherCatV1.12B45,2013-01-19 03:59:00,
2013-01-18 20:04:00,17.6,11.6,30.26,ENE,62,0.0,0.0,77,0.00,,,0.00,WeatherCatV1.12B45,2013-01-19 04:04:00,
2013-01-18 20:09:00,17.1,11.1,30.26,ENE,62,0.0,0.0,77,0.00,,,0.00,WeatherCatV1.12B45,2013-01-19 04:09:00,
2013-01-18 20:14:00,16.9,10.9,30.26,ENE,62,0.0,0.0,77,0.00,,,0.00,WeatherCatV1.12B45,2013-01-19 04:14:00,
2013-01-18 20:19:00,16.9,10.9,30.26,ENE,62,0.0,0.0,77,0.00,,,0.00,WeatherCatV1.12B45,2013-01-19 04:19:00,
2013-01-18 20:24:00,16.9,10.9,30.29,ENE,62,0.0,0.0,77,0.00,,,0.00,WeatherCatV1.12B45,2013-01-19 04:24:00,
2013-01-18 20:29:00,16.9,10.9,30.29,ENE,62,0.0,0.0,77,0.00,,,0.00,WeatherCatV1.12B45,2013-01-19 04:29:00,
2013-01-18 20:34:00,16.9,10.9,30.29,ENE,62,0.0,0.0,77,0.00,,,0.00,WeatherCatV1.12B45,2013-01-19 04:34:00,
2013-01-18 20:39:00,17.4,11.8,30.29,ENE,62,0.0,0.0,78,0.00,,,0.00,WeatherCatV1.12B45,2013-01-19 04:39:00,
2013-01-18 20:44:00,17.4,11.8,30.29,ENE,62,0.0,0.0,78,0.00,,,0.00,WeatherCatV1.12B45,2013-01-19 04:44:00,
2013-01-18 20:49:00,17.2,11.3,30.29,ENE,62,0.0,0.0,77,0.00,,,0.00,WeatherCatV1.12B45,2013-01-19 04:49:00,
2013-01-18 20:54:00,17.1,11.1,30.29,ENE,62,0.0,0.0,77,0.00,,,0.00,WeatherCatV1.12B45,2013-01-19 04:54:00,
2013-01-18 20:59:00,16.7,10.5,30.29,ENE,62,0.0,0.0,76,0.00,,,0.00,WeatherCatV1.12B45,2013-01-19 04:59:00,
2013-01-18 21:00:00,16.7,10.5,30.29,ENE,62,0.0,0.0,76,0.00,,,0.00,WeatherCatV1.12B45,2013-01-19 05:00:00,
2013-01-18 21:01:00,16.7,10.5,30.29,ENE,62,0.0,0.0,76,0.00,,,0.00,WeatherCatV1.12B45,2013-01-19 05:01:00,
2013-01-18 21:06:00,16.5,10.3,30.29,ENE,62,0.0,0.0,76,0.00,,,0.00,WeatherCatV1.12B45,2013-01-19 05:06:00,
2013-01-18 21:11:00,16.5,10.3,30.29,ENE,62,0.0,0.0,76,0.00,,,0.00,WeatherCatV1.12B45,2013-01-19 05:11:00,
2013-01-18 21:16:00,16.2,10.0,30.29,ENE,62,0.0,0.0,76,0.00,,,0.00,WeatherCatV1.12B45,2013-01-19 05:16:00,
2013-01-18 21:21:00,16.2,10.0,30.29,ENE,62,0.0,0.0,76,0.00,,,0.00,WeatherCatV1.12B45,2013-01-19 05:21:00,
2013-01-18 21:26:00,15.8,9.6,30.29,ENE,62,0.0,0.0,76,0.00,,,0.00,WeatherCatV1.12B45,2013-01-19 05:26:00,
2013-01-18 21:31:00,15.6,9.4,30.29,ENE,62,0.0,0.0,76,0.00,,,0.00,WeatherCatV1.12B45,2013-01-19 05:31:00,
2013-01-18 21:36:00,15.4,9.3,30.29,ENE,62,0.0,0.0,76,0.00,,,0.00,WeatherCatV1.12B45,2013-01-19 05:36:00,
2013-01-18 21:41:00,15.6,9.4,30.29,ENE,62,0.0,0.0,76,0.00,,,0.00,WeatherCatV1.12B45,2013-01-19 05:41:00,
2013-01-18 21:46:00,15.8,9.6,30.29,ENE,62,0.0,0.0,76,0.00,,,0.00,WeatherCatV1.12B45,2013-01-19 05:46:00,
2013-01-18 21:51:00,15.6,9.4,30.29,ENE,62,0.0,0.0,76,0.00,,,0.00,WeatherCatV1.12B45,2013-01-19 05:51:00,
2013-01-18 21:56:00,15.3,8.8,30.29,ENE,62,0.0,0.0,75,0.00,,,0.00,WeatherCatV1.12B45,2013-01-19 05:56:00,
2013-01-18 22:01:00,14.9,8.4,30.29,ENE,62,0.0,0.0,75,0.00,,,0.00,WeatherCatV1.12B45,2013-01-19 06:01:00,
2013-01-18 22:06:00,14.5,8.1,30.29,ENE,62,0.0,0.0,75,0.00,,,0.00,WeatherCatV1.12B45,2013-01-19 06:06:00,
2013-01-18 22:11:00,14.2,7.4,30.29,ENE,62,0.0,0.0,74,0.00,,,0.00,WeatherCatV1.12B45,2013-01-19 06:11:00,
2013-01-18 22:16:00,14.2,7.7,30.29,ENE,62,0.0,0.0,75,0.00,,,0.00,WeatherCatV1.12B45,2013-01-19 06:16:00,
2013-01-18 22:21:00,14.4,7.9,30.29,ENE,62,0.0,0.0,75,0.00,,,0.00,WeatherCatV1.12B45,2013-01-19 06:21:00,
2013-01-18 22:26:00,14.2,7.7,30.29,ENE,62,0.0,0.0,75,0.00,,,0.00,WeatherCatV1.12B45,2013-01-19 06:26:00,
2013-01-18 22:31:00,14.2,7.7,30.29,ENE,62,0.0,0.0,75,0.00,,,0.00,WeatherCatV1.12B45,2013-01-19 06:31:00,
2013-01-18 22:36:00,13.8,7.4,30.29,ENE,62,0.0,0.0,75,0.00,,,0.00,WeatherCatV1.12B45,2013-01-19 06:36:00,
2013-01-18 22:41:00,13.6,7.2,30.29,ENE,62,0.0,0.0,75,0.00,,,0.00,WeatherCatV1.12B45,2013-01-19 06:41:00,
2013-01-18 22:46:00,13.6,7.2,30.29,ENE,62,0.0,0.0,75,0.00,,,0.00,WeatherCatV1.12B45,2013-01-19 06:46:00,
2013-01-18 22:51:00,13.6,7.2,30.29,ENE,62,0.0,0.0,75,0.00,,,0.00,WeatherCatV1.12B45,2013-01-19 06:51:00,
2013-01-18 22:56:00,13.3,6.9,30.29,ENE,62,0.0,0.0,75,0.00,,,0.00,WeatherCatV1.12B45,2013-01-19 06:56:00,
2013-01-18 23:01:00,12.9,6.5,30.29,ENE,62,0.0,0.0,75,0.00,,,0.00,WeatherCatV1.12B45,2013-01-19 07:01:00,
2013-01-18 23:06:00,12.9,6.5,30.29,ENE,62,0.0,0.0,75,0.00,,,0.00,WeatherCatV1.12B45,2013-01-19 07:06:00,
2013-01-18 23:11:00,12.9,6.5,30.29,ENE,62,0.0,0.0,75,0.00,,,0.00,WeatherCatV1.12B45,2013-01-19 07:11:00,
2013-01-18 23:16:00,12.7,6.3,30.29,ENE,62,0.0,0.0,75,0.00,,,0.00,WeatherCatV1.12B45,2013-01-19 07:16:00,
2013-01-18 23:21:00,12.7,6.3,30.29,ENE,62,0.0,0.0,75,0.00,,,0.00,WeatherCatV1.12B45,2013-01-19 07:21:00,
2013-01-18 23:26:00,12.7,6.3,30.29,ENE,62,0.0,0.0,75,0.00,,,0.00,WeatherCatV1.12B45,2013-01-19 07:26:00,
2013-01-18 23:31:00,12.7,6.3,30.29,ENE,62,0.0,0.0,75,0.00,,,0.00,WeatherCatV1.12B45,2013-01-19 07:31:00,
2013-01-18 23:36:00,12.9,6.5,30.29,ENE,62,0.0,0.0,75,0.00,,,0.00,WeatherCatV1.12B45,2013-01-19 07:36:00,
2013-01-18 23:41:00,12.7,6.3,30.29,ENE,62,0.0,0.0,75,0.00,,,0.00,WeatherCatV1.12B45,2013-01-19 07:41:00,
2013-01-18 23:46:00,12.9,6.5,30.29,ENE,62,0.0,0.0,75,0.00,,,0.00,WeatherCatV1.12B45,2013-01-19 07:46:00,
2013-01-18 23:51:00,12.7,6.3,30.32,ENE,62,0.0,0.0,75,0.00,,,0.00,WeatherCatV1.12B45,2013-01-19 07:51:00,
2013-01-18 23:56:00,12.4,6.0,30.32,ENE,62,0.0,0.0,75,0.00,,,0.00,WeatherCatV1.12B45,2013-01-19 07:56:00,